Location: ???????
(55.3754°N, 39.3545°E)
Time: 09:17:27
(UTC+00:00)

SL-08 R/B - Pass Details

Date: 14 April 2026
Orbit: 949 x 1017 km, 82.9° (Epoch: 19 May)

Event Time Altitude Azimuth Distance (km) Brightness Sun altitude
Exits shadow 19:02:35 23° 181° (S) 1,921 5.6 -18.7°
Maximum altitude 19:06:37 79° 99° (E) 977 4.4 -19.1°
Drops below altitude 10° 19:12:45 10° 13° (NNE) 2,688 7.4 -19.6°
Sets 19:15:15 0° 12° (NNE) 3,638 8.2 -19.8°
